• In Czech Republic
  • List of Countries
  • For 7 days
  • Water Temperature
  • Satellite Maps
  • Weather Map
  • Weather Widgets
  • user-avatar
    Login

    Hourly Weather Salta

    Today, 23 September, Sunday

    Time Temperature Precipitation Wind Pressure Humidity
    00:00 +25°C° 0 mm 1 mps 648 mmHg 49%
    01:00 +25°C° 0 mm 2 mps 648 mmHg 47%
    02:00 +24°C° 0 mm 2 mps 648 mmHg 42%
    03:00 +24°C° 0 mm 2 mps 647 mmHg 39%
    04:00 +24°C° 0 mm 2 mps 647 mmHg 36%
    05:00 +23°C° 0 mm 2 mps 647 mmHg 32%
    06:00 +25°C° 0 mm 2 mps 648 mmHg 28%
    07:00 +27°C° 0 mm 1 mps 649 mmHg 23%
    08:00 +29°C° 0 mm 1 mps 650 mmHg 19%
    09:00 +31°C° 0 mm 1 mps 651 mmHg 16%
    10:00 +34°C° 0 mm 2 mps 651 mmHg 14%
    11:00 +36°C° 0 mm 2 mps 652 mmHg 12%
    12:00 +37°C° 0 mm 3 mps 651 mmHg 12%
    13:00 +38°C° 0 mm 3 mps 651 mmHg 11%
    14:00 +38°C° 0 mm 3 mps 651 mmHg 11%
    15:00 +37°C° 0 mm 4 mps 650 mmHg 14%
    16:00 +36°C° 0 mm 4 mps 650 mmHg 16%
    17:00 +35°C° 0 mm 4 mps 650 mmHg 19%
    18:00 +33°C° 0.9 mm 3 mps 650 mmHg 28%
    19:00 +29°C° 0.9 mm 3 mps 650 mmHg 37%
    20:00 +26°C° 0.9 mm 2 mps 650 mmHg 46%
    21:00 +26°C° 1.3 mm 2 mps 650 mmHg 52%
    22:00 +25°C° 1.3 mm 2 mps 650 mmHg 57%
    23:00 +24°C° 1.3 mm 1 mps 651 mmHg 62%

    Tomorrow, 24 September, Monday

    Time Temperature Precipitation Wind Pressure Humidity
    00:00 +24°C° 1.4 mm 1 mps 651 mmHg 65%
    01:00 +23°C° 1.4 mm 2 mps 651 mmHg 68%
    02:00 +23°C° 1.4 mm 2 mps 651 mmHg 71%
    03:00 +21°C° 0.1 mm 2 mps 650 mmHg 72%
    04:00 +21°C° 0.1 mm 2 mps 650 mmHg 74%
    05:00 +20°C° 0.1 mm 2 mps 650 mmHg 76%
    06:00 +21°C° 0.1 mm 2 mps 651 mmHg 74%
    07:00 +21°C° 0.1 mm 2 mps 651 mmHg 73%
    08:00 +21°C° 0.1 mm 2 mps 651 mmHg 72%
    09:00 +23°C° 0.2 mm 2 mps 652 mmHg 68%
    10:00 +24°C° 0.2 mm 3 mps 652 mmHg 65%
    11:00 +25°C° 0.2 mm 3 mps 652 mmHg 62%
    12:00 +25°C° 0.1 mm 3 mps 651 mmHg 61%
    13:00 +25°C° 0.1 mm 3 mps 650 mmHg 61%
    14:00 +25°C° 0.1 mm 3 mps 650 mmHg 60%
    15:00 +25°C° 0.2 mm 3 mps 649 mmHg 63%
    16:00 +24°C° 0.2 mm 2 mps 649 mmHg 65%
    17:00 +23°C° 0.2 mm 2 mps 649 mmHg 67%
    18:00 +23°C° 0.4 mm 2 mps 649 mmHg 70%
    19:00 +22°C° 0.4 mm 1 mps 649 mmHg 73%
    20:00 +21°C° 0.4 mm 1 mps 650 mmHg 76%
    21:00 +21°C° 0.1 mm 1 mps 650 mmHg 77%
    22:00 +20°C° 0.1 mm 1 mps 650 mmHg 78%
    23:00 +20°C° 0.1 mm 1 mps 650 mmHg 78%

    Day after tomorrow, 25 September, Tuesday

    Time Temperature Precipitation Wind Pressure Humidity
    00:00 +20°C° 0 mm 1 mps 650 mmHg 78%
    01:00 +19°C° 0 mm 1 mps 649 mmHg 77%
    02:00 +19°C° 0 mm 1 mps 649 mmHg 76%
    03:00 +19°C° 0 mm 1 mps 649 mmHg 75%
    04:00 +18°C° 0 mm 1 mps 649 mmHg 73%
    05:00 +18°C° 0 mm 1 mps 649 mmHg 72%
    06:00 +19°C° 0 mm 1 mps 649 mmHg 66%
    07:00 +20°C° 0 mm 1 mps 650 mmHg 60%
    08:00 +21°C° 0 mm 1 mps 651 mmHg 54%
    09:00 +23°C° 0 mm 2 mps 651 mmHg 50%
    10:00 +25°C° 0 mm 2 mps 651 mmHg 46%
    11:00 +27°C° 0 mm 2 mps 651 mmHg 42%
    12:00 +27°C° 0.1 mm 3 mps 651 mmHg 41%
    13:00 +28°C° 0.1 mm 3 mps 650 mmHg 40%
    14:00 +28°C° 0.1 mm 3 mps 649 mmHg 39%
    15:00 +28°C° 0.2 mm 3 mps 649 mmHg 41%
    16:00 +27°C° 0.2 mm 3 mps 648 mmHg 43%
    17:00 +27°C° 0.2 mm 3 mps 648 mmHg 46%
    18:00 +25°C° 0 mm 2 mps 648 mmHg 52%
    19:00 +23°C° 0 mm 2 mps 649 mmHg 59%
    20:00 +22°C° 0 mm 1 mps 649 mmHg 66%
    21:00 +21°C° 0 mm 1 mps 649 mmHg 66%
    22:00 +21°C° 0 mm 1 mps 649 mmHg 67%
    23:00 +20°C° 0 mm 1 mps 650 mmHg 68%

    26 September, Wednesday

    Time Temperature Precipitation Wind Pressure Humidity
    00:00 +20°C° 0 mm 1 mps 649 mmHg 67%
    01:00 +20°C° 0 mm 1 mps 649 mmHg 66%
    02:00 +19°C° 0 mm 1 mps 648 mmHg 65%
    03:00 +19°C° 0 mm 1 mps 648 mmHg 64%
    04:00 +19°C° 0 mm 1 mps 648 mmHg 63%
    05:00 +18°C° 0 mm 1 mps 648 mmHg 62%
    06:00 +20°C° 0 mm 1 mps 649 mmHg 57%
    07:00 +21°C° 0 mm 1 mps 650 mmHg 52%
    08:00 +23°C° 0 mm 1 mps 651 mmHg 47%
    09:00 +24°C° 0 mm 2 mps 651 mmHg 44%
    10:00 +26°C° 0 mm 2 mps 651 mmHg 41%
    11:00 +27°C° 0 mm 2 mps 651 mmHg 38%
    12:00 +28°C° 0 mm 3 mps 651 mmHg 38%
    13:00 +28°C° 0 mm 3 mps 650 mmHg 37%
    14:00 +29°C° 0 mm 3 mps 649 mmHg 37%
    15:00 +28°C° 0 mm 3 mps 649 mmHg 41%
    16:00 +27°C° 0 mm 3 mps 648 mmHg 46%
    17:00 +26°C° 0 mm 3 mps 648 mmHg 50%
    18:00 +25°C° 0 mm 3 mps 648 mmHg 56%
    19:00 +24°C° 0 mm 2 mps 648 mmHg 63%
    20:00 +23°C° 0 mm 2 mps 649 mmHg 70%
    21:00 +21°C° 0 mm 2 mps 649 mmHg 72%
    22:00 +22°C° 0 mm 1 mps 649 mmHg 73%
    23:00 +21°C° 0 mm 1 mps 649 mmHg 75%

    27 September, Thursday

    Time Temperature Precipitation Wind Pressure Humidity
    00:00 +21°C° 0 mm 1 mps 649 mmHg 73%
    01:00 +20°C° 0 mm 1 mps 648 mmHg 72%
    02:00 +20°C° 0 mm 1 mps 648 mmHg 70%
    03:00 +20°C° 0 mm 1 mps 648 mmHg 68%
    04:00 +19°C° 0 mm 2 mps 648 mmHg 65%
    05:00 +19°C° 0 mm 2 mps 648 mmHg 63%
    06:00 +20°C° 0 mm 2 mps 648 mmHg 60%
    07:00 +21°C° 0 mm 2 mps 649 mmHg 56%
    08:00 +23°C° 0 mm 2 mps 650 mmHg 53%
    09:00 +24°C° 0 mm 2 mps 650 mmHg 50%
    10:00 +25°C° 0 mm 2 mps 649 mmHg 48%
    11:00 +26°C° 0 mm 3 mps 649 mmHg 45%
    12:00 +27°C° 0 mm 3 mps 648 mmHg 43%
    13:00 +28°C° 0 mm 3 mps 648 mmHg 40%
    14:00 +29°C° 0 mm 3 mps 647 mmHg 37%
    15:00 +29°C° 0 mm 3 mps 647 mmHg 39%
    16:00 +29°C° 0 mm 3 mps 647 mmHg 41%
    17:00 +28°C° 0 mm 3 mps 646 mmHg 42%
    18:00 +26°C° 0 mm 3 mps 647 mmHg 50%
    19:00 +25°C° 0 mm 2 mps 647 mmHg 58%
    20:00 +23°C° 0 mm 1 mps 647 mmHg 66%
    21:00 +23°C° 0 mm 1 mps 647 mmHg 66%
    22:00 +22°C° 0 mm 1 mps 648 mmHg 67%
    23:00 +22°C° 0 mm 1 mps 648 mmHg 67%

    28 September, Friday

    Time Temperature Precipitation Wind Pressure Humidity
    00:00 +22°C° 0 mm 1 mps 647 mmHg 64%
    01:00 +21°C° 0 mm 1 mps 647 mmHg 61%
    02:00 +20°C° 0 mm 2 mps 647 mmHg 58%
    03:00 +21°C° 0 mm 1 mps 647 mmHg 56%
    04:00 +21°C° 0 mm 1 mps 647 mmHg 54%
    05:00 +20°C° 0 mm 1 mps 647 mmHg 52%
    06:00 +22°C° 0 mm 1 mps 648 mmHg 50%
    07:00 +23°C° 0 mm 1 mps 649 mmHg 47%
    08:00 +24°C° 0 mm 1 mps 650 mmHg 45%
    09:00 +27°C° 0 mm 2 mps 650 mmHg 39%
    10:00 +29°C° 0 mm 2 mps 650 mmHg 33%
    11:00 +31°C° 0 mm 2 mps 650 mmHg 28%
    12:00 +33°C° 0 mm 3 mps 650 mmHg 26%
    13:00 +34°C° 0 mm 3 mps 649 mmHg 24%
    14:00 +35°C° 0 mm 3 mps 648 mmHg 22%
    15:00 +34°C° 0 mm 3 mps 648 mmHg 24%
    16:00 +34°C° 0 mm 3 mps 648 mmHg 26%
    17:00 +33°C° 0 mm 4 mps 647 mmHg 28%
    18:00 +30°C° 0.5 mm 3 mps 647 mmHg 36%
    19:00 +28°C° 0.5 mm 2 mps 647 mmHg 43%
    20:00 +26°C° 0.5 mm 1 mps 647 mmHg 51%
    21:00 +25°C° 0.3 mm 1 mps 647 mmHg 52%
    22:00 +24°C° 0.3 mm 1 mps 647 mmHg 53%
    23:00 +24°C° 0.3 mm 1 mps 647 mmHg 54%
    Show more